• In Czech Republic
  • List of Countries
  • For 7 days
  • Water Temperature
  • Satellite Maps
  • Weather Map
  • Weather Widgets
  • user-avatar
    Login

    Hourly Weather Konstantyna

    Today, 24 September, Sunday

    Time Temperature Precipitation Wind Pressure Humidity
    00:00 +23°C° 0 mm 1 mps 712 mmHg 53%
    01:00 +23°C° 0.1 mm 1 mps 712 mmHg 54%
    02:00 +23°C° 0.1 mm 1 mps 712 mmHg 56%
    03:00 +22°C° 0.1 mm 1 mps 712 mmHg 57%
    04:00 +22°C° 0.2 mm 1 mps 712 mmHg 61%
    05:00 +22°C° 0.2 mm 1 mps 712 mmHg 64%
    06:00 +21°C° 0.2 mm 1 mps 712 mmHg 67%
    07:00 +22°C° 0 mm 1 mps 713 mmHg 63%
    08:00 +24°C° 0 mm 2 mps 713 mmHg 60%
    09:00 +25°C° 0 mm 2 mps 714 mmHg 56%
    10:00 +25°C° 0 mm 3 mps 714 mmHg 55%
    11:00 +26°C° 0 mm 3 mps 714 mmHg 54%
    12:00 +26°C° 0 mm 3 mps 714 mmHg 53%
    13:00 +26°C° 0 mm 3 mps 714 mmHg 53%
    14:00 +26°C° 0 mm 4 mps 713 mmHg 52%
    15:00 +26°C° 0 mm 4 mps 713 mmHg 52%
    16:00 +25°C° 0 mm 3 mps 713 mmHg 57%
    17:00 +24°C° 0 mm 3 mps 713 mmHg 61%
    18:00 +22°C° 0 mm 3 mps 713 mmHg 66%
    19:00 +21°C° 0 mm 2 mps 713 mmHg 71%
    20:00 +20°C° 0 mm 2 mps 713 mmHg 75%
    21:00 +21°C° 0 mm 1 mps 714 mmHg 80%
    22:00 +20°C° 0 mm 1 mps 714 mmHg 81%
    23:00 +20°C° 0 mm 1 mps 713 mmHg 83%

    Tomorrow, 25 September, Monday

    Time Temperature Precipitation Wind Pressure Humidity
    00:00 +19°C° 0 mm 1 mps 713 mmHg 85%
    01:00 +19°C° 0 mm 1 mps 713 mmHg 85%
    02:00 +19°C° 0 mm 1 mps 712 mmHg 85%
    03:00 +18°C° 0 mm 1 mps 712 mmHg 85%
    04:00 +18°C° 0 mm 1 mps 712 mmHg 83%
    05:00 +18°C° 0 mm 1 mps 712 mmHg 80%
    06:00 +18°C° 0 mm 1 mps 712 mmHg 77%
    07:00 +20°C° 0 mm 1 mps 713 mmHg 65%
    08:00 +20°C° 0 mm 0 mps 713 mmHg 52%
    09:00 +22°C° 0 mm 0 mps 714 mmHg 39%
    10:00 +26°C° 0 mm 1 mps 714 mmHg 34%
    11:00 +27°C° 0 mm 1 mps 714 mmHg 29%
    12:00 +28°C° 0 mm 1 mps 714 mmHg 24%
    13:00 +28°C° 0 mm 2 mps 713 mmHg 24%
    14:00 +28°C° 0 mm 2 mps 713 mmHg 24%
    15:00 +28°C° 0 mm 3 mps 713 mmHg 23%
    16:00 +27°C° 0 mm 2 mps 713 mmHg 29%
    17:00 +26°C° 0 mm 2 mps 712 mmHg 35%
    18:00 +24°C° 0 mm 2 mps 712 mmHg 40%
    19:00 +24°C° 0 mm 2 mps 712 mmHg 45%
    20:00 +23°C° 0 mm 1 mps 713 mmHg 50%
    21:00 +22°C° 0 mm 1 mps 713 mmHg 55%
    22:00 +22°C° 0 mm 1 mps 713 mmHg 56%
    23:00 +21°C° 0 mm 1 mps 712 mmHg 57%

    Day after tomorrow, 26 September, Tuesday

    Time Temperature Precipitation Wind Pressure Humidity
    00:00 +21°C° 0 mm 1 mps 712 mmHg 58%
    01:00 +21°C° 0 mm 1 mps 712 mmHg 58%
    02:00 +20°C° 0 mm 1 mps 712 mmHg 58%
    03:00 +20°C° 0 mm 1 mps 711 mmHg 58%
    04:00 +20°C° 0 mm 1 mps 712 mmHg 57%
    05:00 +20°C° 0 mm 1 mps 712 mmHg 56%
    06:00 +18°C° 0 mm 0 mps 712 mmHg 56%
    07:00 +20°C° 0 mm 0 mps 712 mmHg 48%
    08:00 +22°C° 0 mm 0 mps 713 mmHg 40%
    09:00 +24°C° 0 mm 0 mps 713 mmHg 32%
    10:00 +27°C° 0 mm 1 mps 713 mmHg 28%
    11:00 +28°C° 0 mm 1 mps 713 mmHg 25%
    12:00 +30°C° 0 mm 1 mps 713 mmHg 21%
    13:00 +30°C° 0 mm 2 mps 713 mmHg 21%
    14:00 +30°C° 0 mm 2 mps 712 mmHg 21%
    15:00 +30°C° 0 mm 3 mps 712 mmHg 21%
    16:00 +28°C° 0 mm 3 mps 712 mmHg 26%
    17:00 +27°C° 0 mm 2 mps 712 mmHg 31%
    18:00 +25°C° 0 mm 2 mps 712 mmHg 36%
    19:00 +25°C° 0 mm 2 mps 712 mmHg 39%
    20:00 +24°C° 0 mm 1 mps 712 mmHg 43%
    21:00 +23°C° 0 mm 1 mps 713 mmHg 46%
    22:00 +22°C° 0 mm 1 mps 712 mmHg 47%
    23:00 +22°C° 0 mm 1 mps 712 mmHg 48%

    27 September, Wednesday

    Time Temperature Precipitation Wind Pressure Humidity
    00:00 +19°C° 0 mm 0 mps 712 mmHg 48%
    01:00 +19°C° 0 mm 0 mps 712 mmHg 48%
    02:00 +19°C° 0 mm 0 mps 712 mmHg 48%
    03:00 +19°C° 0 mm 0 mps 712 mmHg 48%
    04:00 +18°C° 0 mm 0 mps 712 mmHg 49%
    05:00 +18°C° 0 mm 0 mps 712 mmHg 49%
    06:00 +18°C° 0 mm 0 mps 712 mmHg 50%
    07:00 +20°C° 0 mm 0 mps 713 mmHg 45%
    08:00 +24°C° 0 mm 1 mps 713 mmHg 40%
    09:00 +26°C° 0 mm 1 mps 714 mmHg 35%
    10:00 +27°C° 0 mm 2 mps 714 mmHg 33%
    11:00 +28°C° 0 mm 2 mps 714 mmHg 32%
    12:00 +29°C° 0 mm 3 mps 714 mmHg 30%
    13:00 +28°C° 0 mm 3 mps 714 mmHg 32%
    14:00 +28°C° 0 mm 4 mps 713 mmHg 34%
    15:00 +28°C° 0 mm 4 mps 713 mmHg 36%
    16:00 +26°C° 0 mm 4 mps 713 mmHg 45%
    17:00 +25°C° 0 mm 4 mps 713 mmHg 54%
    18:00 +22°C° 0 mm 4 mps 713 mmHg 62%
    19:00 +21°C° 0 mm 3 mps 714 mmHg 67%
    20:00 +20°C° 0 mm 2 mps 714 mmHg 73%
    21:00 +21°C° 0 mm 1 mps 714 mmHg 78%
    22:00 +20°C° 0 mm 1 mps 714 mmHg 80%
    23:00 +20°C° 0 mm 1 mps 714 mmHg 82%

    28 September, Thursday

    Time Temperature Precipitation Wind Pressure Humidity
    00:00 +19°C° 0 mm 1 mps 714 mmHg 84%
    01:00 +17°C° 0 mm 0 mps 714 mmHg 86%
    02:00 +17°C° 0 mm 0 mps 714 mmHg 87%
    03:00 +16°C° 0 mm 0 mps 714 mmHg 88%
    04:00 +16°C° 0 mm 0 mps 714 mmHg 88%
    05:00 +16°C° 0 mm 0 mps 714 mmHg 88%
    06:00 +16°C° 0 mm 0 mps 714 mmHg 88%
    07:00 +19°C° 0 mm 1 mps 715 mmHg 77%
    08:00 +21°C° 0 mm 1 mps 715 mmHg 67%
    09:00 +22°C° 0 mm 1 mps 715 mmHg 56%
    10:00 +23°C° 0 mm 2 mps 715 mmHg 50%
    11:00 +24°C° 0 mm 2 mps 715 mmHg 43%
    12:00 +25°C° 0 mm 3 mps 715 mmHg 37%
    13:00 +25°C° 0 mm 3 mps 715 mmHg 37%
    14:00 +25°C° 0 mm 3 mps 715 mmHg 38%
    15:00 +25°C° 0 mm 4 mps 714 mmHg 39%
    16:00 +24°C° 0 mm 3 mps 714 mmHg 45%
    17:00 +22°C° 0 mm 3 mps 714 mmHg 51%
    18:00 +20°C° 0 mm 3 mps 714 mmHg 58%
    19:00 +20°C° 0 mm 2 mps 715 mmHg 62%
    20:00 +19°C° 0 mm 2 mps 715 mmHg 66%
    21:00 +19°C° 0 mm 1 mps 715 mmHg 70%
    22:00 +19°C° 0 mm 1 mps 715 mmHg 72%
    23:00 +18°C° 0 mm 1 mps 714 mmHg 74%

    29 September, Friday

    Time Temperature Precipitation Wind Pressure Humidity
    00:00 +18°C° 0 mm 1 mps 714 mmHg 76%
    01:00 +16°C° 0 mm 1 mps 714 mmHg 77%
    02:00 +16°C° 0 mm 1 mps 714 mmHg 78%
    03:00 +16°C° 0 mm 1 mps 713 mmHg 79%
    04:00 +16°C° 0 mm 1 mps 714 mmHg 78%
    05:00 +15°C° 0 mm 1 mps 714 mmHg 77%
    06:00 +15°C° 0 mm 1 mps 714 mmHg 76%
    07:00 +18°C° 0 mm 1 mps 714 mmHg 66%
    08:00 +20°C° 0 mm 1 mps 714 mmHg 56%
    09:00 +21°C° 0 mm 1 mps 715 mmHg 46%
    10:00 +22°C° 0 mm 1 mps 715 mmHg 41%
    11:00 +23°C° 0 mm 2 mps 715 mmHg 37%
    12:00 +25°C° 0 mm 2 mps 715 mmHg 32%
    13:00 +25°C° 0 mm 2 mps 714 mmHg 33%
    14:00 +25°C° 0 mm 3 mps 714 mmHg 34%
    15:00 +25°C° 0 mm 3 mps 713 mmHg 35%
    16:00 +24°C° 0 mm 3 mps 713 mmHg 44%
    17:00 +22°C° 0 mm 3 mps 713 mmHg 53%
    18:00 +20°C° 0 mm 3 mps 713 mmHg 61%
    19:00 +20°C° 0 mm 2 mps 713 mmHg 67%
    20:00 +19°C° 0 mm 2 mps 714 mmHg 73%
    21:00 +19°C° 0 mm 1 mps 714 mmHg 79%
    22:00 +19°C° 0 mm 1 mps 713 mmHg 81%
    23:00 +18°C° 0 mm 1 mps 713 mmHg 83%
    Show more